TimePST,TemperatureF,Dew PointF,Humidity,Sea Level PressureIn,VisibilityMPH,Wind Direction,Wind SpeedMPH,Gust SpeedMPH,PrecipitationIn,Events,Conditions,WindDirDegrees,DateUTC
12:15 AM,42.8,28.4,57,30.15,10.0,Calm,Calm,-,N/A,,Clear,0,2013-01-20 08:15:00
12:35 AM,42.8,28.4,57,30.14,10.0,Calm,Calm,-,N/A,,Clear,0,2013-01-20 08:35:00
12:55 AM,42.8,28.4,57,30.14,10.0,Calm,Calm,-,N/A,,Clear,0,2013-01-20 08:55:00
1:15 AM,42.8,28.4,57,30.14,10.0,Calm,Calm,-,N/A,,Clear,0,2013-01-20 09:15:00
1:35 AM,41.0,28.4,61,30.14,10.0,Calm,Calm,-,N/A,,Clear,0,2013-01-20 09:35:00
1:55 AM,39.2,28.4,65,30.14,10.0,Calm,Calm,-,N/A,,Clear,0,2013-01-20 09:55:00
2:15 AM,39.2,28.4,65,30.14,10.0,Calm,Calm,-,N/A,,Clear,0,2013-01-20 10:15:00
2:35 AM,39.2,30.2,70,30.14,10.0,Calm,Calm,-,N/A,,Clear,0,2013-01-20 10:35:00
2:55 AM,39.2,28.4,65,30.14,10.0,Calm,Calm,-,N/A,,Clear,0,2013-01-20 10:55:00
3:15 AM,37.4,28.4,70,30.13,10.0,Calm,Calm,-,N/A,,Clear,0,2013-01-20 11:15:00
3:35 AM,37.4,28.4,70,30.13,10.0,Calm,Calm,-,N/A,,Clear,0,2013-01-20 11:35:00
3:55 AM,37.4,28.4,70,30.13,10.0,Calm,Calm,-,N/A,,Clear,0,2013-01-20 11:55:00
4:15 AM,37.4,28.4,70,30.13,10.0,Calm,Calm,-,N/A,,Clear,0,2013-01-20 12:15:00
4:35 AM,37.4,28.4,70,30.13,10.0,Calm,Calm,-,N/A,,Clear,0,2013-01-20 12:35:00
4:55 AM,37.4,28.4,70,30.14,10.0,Calm,Calm,-,N/A,,Clear,0,2013-01-20 12:55:00
5:15 AM,37.4,28.4,70,30.14,10.0,Calm,Calm,-,N/A,,Clear,0,2013-01-20 13:15:00
6:47 AM,35.6,28.4,75,30.14,25.0,Calm,Calm,-,N/A,,Partly Cloudy,0,2013-01-20 14:47:00
9:47 AM,59.0,30.2,34,30.14,25.0,Calm,Calm,-,N/A,,Partly Cloudy,0,2013-01-20 17:47:00
10:47 AM,62.6,32.0,32,30.12,20.0,Calm,Calm,-,N/A,,Scattered Clouds,0,2013-01-20 18:47:00
12:47 PM,78.8,26.6,15,30.03,25.0,Calm,Calm,-,N/A,,Scattered Clouds,0,2013-01-20 20:47:00
2:47 PM,80.6,26.6,14,30.00,25.0,West,11.5,-,N/A,,Scattered Clouds,260,2013-01-20 22:47:00
3:47 PM,75.2,28.4,18,30.00,25.0,West,10.4,-,N/A,,Partly Cloudy,270,2013-01-20 23:47:00
8:15 PM,51.8,28.4,41,30.10,10.0,North,-9999.0,-,N/A,,Clear,0,2013-01-21 04:15:00
8:35 PM,48.2,30.2,50,30.10,10.0,NW,3.5,-,N/A,,Clear,310,2013-01-21 04:35:00
8:55 PM,48.2,30.2,50,30.10,10.0,Calm,Calm,-,N/A,,Clear,0,2013-01-21 04:55:00
9:15 PM,48.2,30.2,50,30.10,10.0,West,3.5,-,N/A,,Clear,260,2013-01-21 05:15:00
9:35 PM,46.4,30.2,53,30.11,10.0,Calm,Calm,-,N/A,,Clear,0,2013-01-21 05:35:00
10:15 PM,44.6,28.4,53,30.11,10.0,WSW,3.5,-,N/A,,Clear,250,2013-01-21 06:15:00
10:35 PM,44.6,28.4,53,30.11,10.0,Calm,Calm,-,N/A,,Clear,0,2013-01-21 06:35:00
10:55 PM,42.8,28.4,57,30.11,10.0,NW,3.5,-,N/A,,Clear,320,2013-01-21 06:55:00
11:15 PM,42.8,28.4,57,30.10,10.0,Calm,Calm,-,N/A,,Clear,0,2013-01-21 07:15:00
11:35 PM,41.0,28.4,61,30.09,10.0,Calm,Calm,-,N/A,,Clear,0,2013-01-21 07:35:00
11:55 PM,41.0,28.4,61,30.08,10.0,Calm,Calm,-,N/A,,Clear,0,2013-01-21 07:55:00